sat.trackr.live / text

‹ back to catalog

STARLINK-36532

NORAD 67628 · 2026-020M

PAYLOAD ACTIVE UNKNOWN

§ Identity

Operator
Country
US
Launch date
2026-01-30
Launch site
AFETR
Launch vehicle
Mass (kg)
RCS (m²)

Purposes: comms

External: N2YO · Heavens-Above · Gunter

§ Orbital elements

Epoch: 2026-05-25T04:17:35.107584Z

Period
94.27 min
Inclination
43.0051°
Eccentricity
0.0001345
Mean motion
15.27600598 rev/d
Perigee alt
482.1 km
Apogee alt
483.9 km
Semi-major
6,861.1 km
B*
6.1298e-4
RAAN
67.6236°
Arg perigee
250.1108°
Mean anomaly
109.9599°
Rev number
1,781

§ Raw data

STARLINK-365321 67628U 26020M   26145.17887856  .00016654  00000+0  61298-3 0  99972 67628  43.0051  67.6236 0001345 250.1108 109.9599 15.27600598 17816

JSON: /api/v1/satellites/67628 · /tle

For live sub-satellite position, see the globe view (requires WebGL).

§ Visibility from observer

Set your observer location to see the next 7 days of passes ≥ 10°. The values pass through the URL so the page stays shareable.

No JS? Fill the form by hand. The geolocation button needs JavaScript.